GALAXY 37 (G-37)

Last updated on Sat May 17 2025 00:02:46 GMT+0000 (Coordinated Universal Time)

1 57493U 23112A 25136.67038744 .00000061 00000+0 00000+0 0 9998 2 57493 0.0196 25.2671 0002198 30.9399 292.7680 1.00270813 6543
UTC large
Height (km)
Speed (km/s)
/
Latitude / Longitude
Inclination (degrees)
Orbital Period (minutes)
Azimuth
Elevation
Range (km)
Doppler Factor

Next 0 passes for location: London (51.5072 / 0.1276)

Sorry there are no passes over London.